Davenport, IA

11:13 AM CDT on July 27, 2017 (GMT -0500)
Davenport Municipal

Weather History for KDVN - February, 2013

Change the Weather History Date:

Thursday, February 21, 2013

  Actual Average Record
Temperature  
Mean Temperature 20 °F 28 °F  
Max Temperature 28 °F 36 °F 65 °F (2017)
Min Temperature 11 °F 20 °F -8 °F (1963)
Degree Days  
Heating Degree Days 45 37  
Month to date heating degree days 829 842  
Since 1 July heating degree days 4525 4778  
Cooling Degree Days 0 0  
Month to date cooling degree days 0 0  
Year to date cooling degree days 0 0  
Moisture  
Dew Point 18 °F    
Average Humidity 83    
Maximum Humidity 92    
Minimum Humidity 73    
Precipitation  
Precipitation 0.11 in 0.05 in 1.10 in (1997)
Month to date precipitation 1.32 0.92  
Year to date precipitation 3.20 2.11  
Snow  
Snow 2.00 in - - ()
Month to date snowfall 2.9  
Since 1 July snowfall 11.4  
Snow Depth T in    
Sea Level Pressure  
Sea Level Pressure 30.15 in    
Wind  
Wind Speed 14 mph (East)    
Max Wind Speed 29 mph    
Max Gust Speed 36 mph    
Visibility 6 miles    
Events Fog , Snow    
T = Trace of Precipitation, MM = Missing Value Source: NWS Daily Summary

Daily Weather History Graph

Daily Weather History Graph

Search for Another Location

Airport or City:

Trip Planner

Search our weather history database for the weather conditions in past years. The results will help you decide how hot, cold, wet, or windy it might be!

Date:

Astronomy

Feb. 21, 2013 Rise Set
Actual Time 6:48 AM CST 5:43 PM CST
Civil Twilight 6:20 AM CST 6:11 PM CST
Nautical Twilight 5:48 AM CST 6:44 PM CST
Astronomical Twilight 5:16 AM CST 7:16 PM CST
Moon 1:56 PM CST (2/21) 3:55 AM CST (2/21)
Length of Visible Light 11h 51m
Length of Day
10h 54m
Waxing Gibbous, 84% of the Moon is Illuminated
Feb 21
Waxing Gibbous
Feb 25
Full
Mar 4
Last Quarter
Mar 11
New
Mar 19
First Quarter

Hourly Weather History & Observations

Time (CST) Temp. Windchill Dew Point Humidity Pressure Visibility Wind Dir Wind Speed Gust Speed Precip Events Conditions
12:52 AM 16.0 °F 6.3 °F 10.0 °F 77% 30.39 in 10.0 mi East 6.9 mph - N/A   Clear
1:52 AM 15.1 °F 7.7 °F 9.0 °F 77% 30.40 in 10.0 mi East 4.6 mph - N/A   Clear
2:52 AM 14.0 °F 8.2 °F 9.0 °F 80% 30.40 in 10.0 mi ENE 3.5 mph - N/A   Clear
3:52 AM 10.9 °F 4.7 °F 7.0 °F 84% 30.39 in 10.0 mi NE 3.5 mph - N/A   Clear
4:52 AM 12.9 °F 1.6 °F 9.0 °F 84% 30.37 in 10.0 mi East 8.1 mph - N/A   Clear
5:52 AM 12.0 °F 2.7 °F 8.1 °F 84% 30.39 in 10.0 mi ENE 5.8 mph - N/A   Clear
6:52 AM 14.0 °F 1.2 °F 9.0 °F 80% 30.35 in 9.0 mi ENE 10.4 mph - N/A   Clear
7:52 AM 15.1 °F 4.2 °F 10.0 °F 80% 30.38 in 9.0 mi East 8.1 mph - N/A   Clear
8:52 AM 17.1 °F 4.3 °F 10.9 °F 77% 30.36 in 9.0 mi East 11.5 mph - N/A   Clear
9:52 AM 19.0 °F 8.2 °F 12.0 °F 74% 30.36 in 9.0 mi East 9.2 mph - N/A   Clear
10:29 AM 21.2 °F 9.5 °F 14.0 °F 74% 30.30 in 10.0 mi East 11.5 mph - N/A   Mostly Cloudy
10:52 AM 21.9 °F 11.0 °F 16.0 °F 78% 30.33 in 9.0 mi East 10.4 mph - N/A   Overcast
11:52 AM 24.1 °F 11.0 °F 18.0 °F 77% 30.28 in 8.0 mi East 16.1 mph - N/A   Overcast
12:41 PM 24.8 °F 11.9 °F 19.4 °F 80% 30.20 in 8.0 mi ENE 16.1 mph 21.9 mph N/A   Overcast
12:52 PM 25.0 °F 12.2 °F 19.9 °F 81% 30.22 in 8.0 mi East 16.1 mph - N/A   Overcast
1:52 PM 26.1 °F 14.0 °F 21.0 °F 81% 30.22 in 8.0 mi East 15.0 mph - N/A   Overcast
2:52 PM 26.1 °F 12.7 °F 21.0 °F 81% 30.18 in 8.0 mi ENE 18.4 mph - N/A   Overcast
3:52 PM 25.0 °F 10.2 °F 21.0 °F 85% 30.14 in 7.0 mi ENE 21.9 mph 28.8 mph N/A   Overcast
4:25 PM 26.6 °F 13.4 °F 21.2 °F 80% 30.07 in 6.0 mi East 18.4 mph 27.6 mph N/A   Overcast
4:52 PM 26.1 °F 13.6 °F 23.0 °F 88% 30.11 in 5.0 mi East 16.1 mph 25.3 mph N/A   Overcast
5:52 PM 27.0 °F 13.2 °F 24.1 °F 89% 30.08 in 7.0 mi East 20.7 mph 28.8 mph N/A   Overcast
6:52 PM 27.0 °F 13.2 °F 24.1 °F 89% 30.03 in 5.0 mi East 20.7 mph 27.6 mph N/A   Overcast
7:49 PM 26.6 °F 10.8 °F 23.0 °F 86% 29.96 in 3.0 mi East 27.6 mph 34.5 mph 0.00 in Snow Light Snow
7:52 PM 27.0 °F 12.8 °F 23.0 °F 85% 30.00 in 2.5 mi East 21.9 mph 34.5 mph 0.00 in Snow Light Snow
8:00 PM 26.6 °F 13.1 °F 23.0 °F 86% 29.96 in 1.2 mi East 19.6 mph 28.8 mph 0.00 in Snow Light Snow
8:16 PM 26.6 °F 12.7 °F 23.0 °F 86% 29.95 in 2.5 mi East 20.7 mph 32.2 mph 0.00 in Snow Light Snow
8:27 PM 26.6 °F 12.0 °F 21.2 °F 80% 29.95 in 1.5 mi East 23.0 mph 35.7 mph 0.00 in Snow Light Snow
8:45 PM 26.6 °F 12.7 °F 21.2 °F 80% 29.96 in 0.8 mi East 20.7 mph 29.9 mph 0.00 in Snow Light Snow
8:52 PM 25.0 °F 10.2 °F 21.9 °F 88% 29.99 in 0.8 mi East 21.9 mph - 0.00 in Snow Light Snow
9:04 PM 24.8 °F 9.0 °F 21.2 °F 86% 29.95 in 0.5 mi East 25.3 mph 33.4 mph 0.00 in Fog , Snow Snow
9:13 PM 24.8 °F 10.0 °F 21.2 °F 86% 29.94 in 0.2 mi East 21.9 mph - 0.00 in Fog , Snow Snow
9:29 PM 24.8 °F 10.7 °F 21.2 °F 86% 29.94 in 0.5 mi East 19.6 mph 26.5 mph 0.00 in Fog , Snow Snow
9:52 PM 24.1 °F 9.8 °F 21.9 °F 91% 29.96 in 0.2 mi East 19.6 mph - 0.01 in Fog , Snow Heavy Snow
10:10 PM 24.8 °F 11.1 °F 21.2 °F 86% 29.92 in 0.5 mi East 18.4 mph - 0.00 in Fog , Snow Snow
10:52 PM 24.1 °F 11.5 °F 21.9 °F 91% 29.95 in 0.5 mi East 15.0 mph - 0.02 in Fog , Snow Snow
11:52 PM 24.1 °F 10.1 °F 21.9 °F 91% 29.92 in 0.8 mi East 18.4 mph 26.5 mph 0.01 in Snow Light Snow